ONEWEB-0274 (48992 NORAD) Tracking and Keplerian Element Data

This shows tracking and keplerian element data for the satellite.

Feedback or suggestion? Click here.




ElementValue
Catalog48992
NameONEWEB-0274
Epoch Orbit568
Epoch Day211.25001157
Epoch Year2021
RAAN227.3979
Inclination87.4831
Eccentricity0.0008843
Argument of Perigee158.7663
Mean Anonmoly120.9339
Mean Motion15.03071116
Decay Rate-0.01422468
L11 48992U 21060AB 21211.25001157 -.01422468 00000-0 -11530+0 0 9997
L22 48992 87.4831 227.3979 0008843 158.7663 120.9339 15.03071116 5684

Live tracking and technical data element details for ONEWEB-0274 (NORAD 48992). ONEWEB-0274 can be tracked NOW for your location showing map with azimuth and elevation plus other details from your city location.

Track the satellite on the map from your city or location and see movement details for azimuth, elevation, latitude, longitude, range, height, and movement on the map or in text.







IsCatalogInMostPopularTable: catalog: 48992, numindb: 3
Update: records affected: 1



GetName: 48992 ONEWEB-0274

Hit Count: updated at: Sat, 31 Jul 2021 16:13:02 GMT